Wind_Speed
80 84 82 81 84 91 98 102 104 105 110 113 119 120 129 128 131 134 126 128 128 129 115 104 99 92 85 79 74 71 70 69 71 73 69 68 68 69 68 69 67 65 64
68 73 80 84 84 88 92 99 102 108 112 114 115 123 123 123 119 116 115 119 107 103 95 88 80 75 71 68 66 68 68 69 69 67 64 64 63 63 63 64 62 56 49
53 59 65 68 74 82 89 94 95 98 96 103 101 100 100 102 92 94 98 96 92 85 80 73 69 65 64 65 65 66 68 67 63 58 59 59 61 61 64 64 55 46 40
49 50 51 55 58 60 63 64 67 72 76 75 79 80 83 80 84 89 86 82 75 70 67 62 61 63 63 61 61 61 58 54 55 57 57 58 59 61 65 63 61 49 41
51 49 48 49 52 54 56 58 58 61 62 66 68 70 70 74 76 74 70 66 63 61 57 56 58 58 55 54 51 46 47 51 53 52 54 55 55 60 64 64 55 47 39
46 47 48 49 50 52 52 52 55 59 61 62 62 66 67 66 67 63 60 57 58 58 56 58 56 50 45 40 37 39 44 50 51 51 50 49 52 57 58 56 52 46 37
44 44 45 47 51 49 51 52 54 57 58 58 62 63 63 63 60 57 53 54 55 56 56 58 51 45 41 39 40 45 49 52 53 51 47 46 46 51 57 56 48 39 33
47 44 46 50 49 48 50 51 54 56 53 58 61 61 60 58 56 53 48 51 51 53 53 53 46 43 44 44 46 50 51 52 54 52 45 44 47 50 54 55 46 38 34
45 45 49 51 49 50 49 50 53 52 54 59 59 60 57 52 48 47 47 49 47 47 49 47 44 44 44 46 49 51 54 57 56 56 52 43 45 50 56 58 54 48 40
48 50 49 48 50 47 48 50 50 51 56 57 55 54 50 44 43 46 48 44 42 43 44 41 40 42 43 44 45 48 50 53 56 59 55 54 48 50 53 56 54 52 46
50 50 48 50 46 47 49 50 48 53 55 51 51 48 41 39 43 49 41 42 38 39 39 37 37 39 39 40 42 43 44 47 50 54 59 56 57 48 50 53 53 52 53
51 50 50 46 47 48 49 49 50 52 52 50 46 41 36 35 41 46 44 44 39 35 34 35 36 37 37 39 41 41 42 45 48 52 58 62 57 52 45 47 50 52 53
52 48 47 48 48 48 50 50 50 51 47 47 43 40 39 33 39 45 47 45 42 34 32 32 35 36 37 39 40 40 41 42 46 49 52 56 60 55 48 45 47 48 47
49 49 49 48 49 50 50 48 50 47 46 41 41 36 36 33 37 45 48 51 46 39 32 30 31 33 37 38 37 37 40 41 41 43 46 49 54 59 56 49 44 46 48
49 51 49 48 49 50 46 48 47 44 41 40 43 38 38 35 40 46 49 51 44 41 35 33 31 30 32 34 37 37 38 39 38 37 41 45 48 50 54 54 48 42 43
54 51 49 50 49 46 46 48 45 42 39 44 46 42 37 35 39 47 45 51 47 45 41 35 34 32 32 33 35 37 38 37 38 38 36 39 41 44 47 48 51 48 43
51 49 49 48 47 47 48 46 43 43 43 47 45 43 37 39 41 48 48 50 53 43 40 38 35 36 34 33 35 35 36 37 35 35 36 34 35 37 40 43 44 47 47
55 55 54 49 48 47 47 45 44 44 45 46 48 50 42 40 45 49 53 55 53 42 38 35 33 33 35 37 36 35 35 34 35 34 32 33 33 32 34 37 39 40 42
58 56 55 52 49 51 47 45 48 49 47 47 46 48 43 43 47 52 54 57 54 42 38 37 37 36 36 35 37 37 36 36 36 36 35 32 31 31 29 30 34 34 35
56 53 54 50 51 46 47 49 52 51 51 48 49 45 43 45 50 54 56 58 50 40 38 39 39 40 39 39 38 39 39 39 37 36 37 37 35 32 31 29 30 31 31
54 54 50 50 43 46 50 52 52 52 51 49 48 46 48 51 53 54 59 63 48 41 40 41 41 43 44 43 41 40 41 43 43 43 41 38 38 38 34 32 30 29 26
54 49 48 48 49 49 50 51 51 50 47 46 45 45 50 54 58 61 65 65 50 46 44 43 46 47 48 47 47 47 46 48 48 45 45 45 42 39 39 37 34 32 30
51 49 50 53 54 54 54 53 51 48 48 47 46 49 55 59 62 65 66 57 50 48 48 50 52 54 56 56 55 53 55 54 54 50 46 48 47 45 44 42 40 37 34
52 51 51 56 60 58 55 54 50 48 46 49 52 56 60 64 66 65 60 55 52 52 54 58 61 64 64 64 63 63 65 63 61 58 56 50 48 49 48 47 47 43 40
57 59 61 61 59 57 55 49 46 47 48 50 53 58 63 66 66 63 61 59 58 59 63 65 68 69 70 70 71 73 74 72 70 67 61 54 53 52 50 52 52 51 48
62 61 58 59 59 57 53 50 48 49 52 56 62 63 63 63 64 64 64 64 65 67 70 72 74 76 77 79 80 80 77 77 73 67 62 58 58 58 55 57 60 56 55
Wind_Direction
251 250 251 252 250 251 255 258 262 267 269 271 277 284 282 286 289 291 295 297 300 300 301 303 304 305 306 305 305 306 307 309 311 312 311 310 307 305 303 300 297 295 292
252 254 254 253 254 254 257 262 267 270 272 275 278 281 285 288 291 293 295 297 300 302 304 306 307 307 309 312 314 314 315 316 317 317 315 313 314 313 311 308 307 304 294
255 256 259 261 261 262 263 265 267 270 274 275 280 281 286 289 295 298 300 301 302 306 308 311 311 316 317 318 318 320 321 321 321 321 320 323 323 322 321 318 320 317 305
258 262 263 264 265 268 270 272 274 275 277 279 283 289 292 298 303 303 304 305 307 311 314 319 322 322 321 322 323 324 326 328 330 328 329 331 330 330 325 326 327 326 318
257 258 261 267 271 276 279 280 283 285 288 291 294 301 306 307 307 308 310 314 316 319 324 328 327 325 325 326 330 334 334 337 337 334 338 337 337 338 330 328 331 331 328
260 265 270 274 277 280 282 286 287 290 292 298 305 309 309 309 311 313 316 320 325 327 331 333 332 333 334 336 338 344 346 347 344 344 345 343 350 346 340 339 339 337 334
260 266 269 273 276 283 285 288 290 292 300 306 311 311 311 312 315 320 324 327 329 330 334 334 337 340 340 347 352 355 355 355 353 352 354 352 352 358 357 352 348 348 347
260 265 271 273 278 283 286 288 293 299 306 309 311 311 312 314 321 326 328 332 329 329 332 336 339 345 350 352 356 359 358 2 359 359 359 356 358 3 11 5 6 4 8
261 267 271 276 281 285 284 290 296 302 307 309 310 310 312 318 322 333 331 331 327 328 332 337 346 349 353 355 358 1 1 1 2 4 3 2 5 10 14 16 16 17 19
261 267 272 278 281 282 288 293 298 303 306 307 306 307 312 319 326 328 332 328 326 327 332 339 344 348 351 354 359 2 2 1 4 6 7 10 7 12 16 16 20 25 25
261 267 273 276 279 286 290 294 300 302 304 303 305 305 312 316 339 337 329 326 323 325 330 333 336 343 344 352 356 358 359 0 5 10 12 14 13 11 16 17 17 23 32
261 268 271 275 282 288 291 295 298 301 303 301 303 299 303 324 332 341 338 332 323 321 326 327 331 336 341 345 349 351 354 358 5 12 17 17 17 15 15 17 19 21 25
262 262 270 281 282 287 290 294 297 300 296 300 294 291 300 318 328 338 341 340 329 315 318 322 325 329 337 338 343 344 345 353 3 11 17 18 19 19 18 18 20 23 25
260 269 275 279 283 286 289 293 295 295 295 290 287 296 302 309 322 332 334 337 333 322 309 318 324 326 332 337 338 342 344 347 360 8 11 17 19 21 21 20 19 23 26
265 271 274 279 281 285 288 292 292 289 290 281 288 293 301 306 313 322 325 334 329 329 315 308 314 317 321 326 332 336 340 344 349 359 8 15 18 19 21 22 22 21 26
267 272 277 278 280 284 287 290 287 286 285 280 285 287 298 307 313 318 324 331 329 325 325 311 306 311 318 321 325 330 335 339 344 350 360 6 13 16 18 21 24 23 23
269 271 273 273 278 280 285 285 285 286 285 283 283 289 295 308 307 315 322 328 330 319 320 321 311 305 307 312 318 321 326 331 336 342 348 354 4 9 13 15 19 24 27
267 271 274 276 280 284 286 284 283 285 287 285 284 289 287 299 303 310 311 317 324 313 309 315 321 321 316 308 306 310 313 316 322 327 334 342 349 358 4 7 10 17 21
265 271 274 277 280 285 282 284 286 286 282 286 290 287 287 294 298 303 307 313 318 309 303 308 313 317 323 318 313 306 304 307 310 313 318 323 332 339 349 355 359 3 9
266 271 276 277 281 281 284 285 286 285 282 285 290 285 288 293 295 302 304 312 313 305 302 306 307 310 315 320 320 316 311 302 299 300 303 307 313 320 326 335 342 350 356
271 272 270 273 277 286 285 284 284 285 284 285 286 285 291 285 294 295 305 311 308 303 299 301 305 308 310 311 313 312 314 313 312 301 295 296 299 303 308 313 320 328 338
271 268 270 267 272 286 288 286 283 283 282 284 283 288 288 283 289 293 301 306 299 299 297 299 302 302 305 306 308 306 307 306 311 308 303 294 290 290 292 296 300 307 313
264 264 269 272 274 285 288 286 282 279 278 282 289 289 286 287 290 295 301 298 294 294 291 293 297 301 302 302 303 302 304 304 304 304 300 296 290 285 283 283 285 289 295
263 265 271 277 279 282 284 281 280 281 284 289 288 288 288 289 292 295 295 292 291 291 292 294 296 300 301 303 302 302 303 304 303 304 305 300 288 284 284 281 278 278 281
265 272 277 279 280 284 282 280 281 284 287 289 290 290 291 290 292 292 290 289 291 292 294 296 298 299 301 301 301 303 304 303 303 301 301 293 294 289 278 280 278 276 272
274 273 276 279 281 281 281 280 279 280 283 283 281 282 285 288 288 287 288 290 291 293 295 297 299 299 299 301 302 303 302 301 300 295 291 286 282 279 275 274 273 273 273
Height
10792 10792 10797 10801 10804 10805 10803 10799 10796 10791 10782 10778 10770 10758 10745 10733 10727 10722 10712 10706 10697 10686 10670 10656 10640 10624 10610 10598 10586 10575 10565 10554 10540 10522 10514 10502 10490 10480 10467 10454 10445 10438 10428
10775 10781 10785 10791 10794 10795 10793 10789 10785 10781 10774 10766 10758 10743 10734 10724 10717 10708 10702 10697 10682 10667 10652 10638 10622 10607 10596 10583 10570 10559 10548 10535 10524 10511 10500 10484 10473 10460 10446 10433 10421 10413 10408
10768 10771 10776 10778 10781 10782 10781 10778 10776 10770 10762 10757 10747 10735 10724 10715 10706 10697 10692 10677 10663 10649 10633 10619 10607 10594 10581 10570 10558 10546 10533 10520 10510 10499 10486 10472 10457 10444 10428 10410 10400 10390 10383
10760 10764 10766 10768 10768 10767 10766 10764 10759 10754 10748 10741 10730 10719 10711 10702 10692 10685 10671 10658 10645 10633 10621 10608 10595 10582 10570 10559 10548 10535 10524 10513 10501 10487 10474 10461 10446 10432 10414 10399 10382 10374 10366
10752 10755 10756 10758 10756 10755 10753 10749 10744 10737 10731 10724 10713 10705 10695 10687 10678 10667 10653 10642 10631 10622 10611 10600 10588 10575 10564 10554 10543 10532 10522 10509 10495 10481 10468 10454 10439 10423 10406 10387 10373 10362 10354
10741 10742 10744 10744 10743 10741 10740 10736 10731 10724 10719 10710 10701 10691 10682 10674 10665 10653 10643 10633 10622 10611 10602 10592 10580 10570 10561 10552 10544 10534 10522 10508 10492 10477 10463 10449 10435 10418 10399 10382 10367 10354 10346
10731 10733 10734 10733 10733 10731 10728 10724 10719 10713 10707 10697 10689 10679 10671 10662 10654 10644 10634 10624 10615 10604 10595 10586 10575 10566 10558 10548 10538 10527 10514 10501 10487 10473 10458 10447 10436 10419 10397 10378 10364 10352 10342
10724 10725 10724 10723 10723 10721 10718 10713 10707 10701 10696 10686 10678 10670 10662 10653 10644 10635 10626 10617 10609 10600 10592 10582 10573 10563 10553 10543 10533 10522 10512 10500 10488 10473 10459 10447 10433 10417 10401 10384 10367 10354 10342
10714 10715 10714 10713 10712 10709 10706 10702 10697 10691 10686 10678 10669 10661 10652 10644 10637 10628 10619 10613 10606 10597 10588 10580 10570 10561 10551 10542 10531 10520 10507 10497 10487 10472 10459 10446 10432 10417 10402 10389 10372 10358 10346
10704 10703 10703 10703 10700 10698 10696 10693 10688 10682 10676 10669 10661 10652 10643 10636 10630 10624 10615 10608 10602 10595 10586 10577 10570 10562 10552 10543 10532 10522 10513 10501 10487 10473 10459 10444 10431 10420 10407 10395 10383 10368 10355
10692 10691 10691 10692 10691 10689 10685 10682 10678 10672 10667 10660 10652 10642 10636 10633 10627 10618 10610 10604 10598 10591 10584 10576 10569 10562 10554 10544 10535 10525 10517 10507 10494 10479 10462 10447 10433 10422 10413 10402 10390 10379 10367
10680 10681 10682 10682 10681 10679 10675 10671 10667 10662 10656 10649 10642 10635 10631 10628 10621 10615 10607 10601 10594 10587 10582 10574 10567 10560 10552 10544 10536 10527 10519 10508 10496 10481 10466 10453 10440 10429 10419 10409 10398 10387 10376
10671 10672 10673 10672 10671 10668 10664 10660 10655 10651 10646 10639 10634 10629 10626 10623 10617 10610 10603 10596 10590 10583 10578 10571 10564 10557 10550 10543 10535 10527 10518 10509 10496 10484 10472 10462 10449 10438 10426 10415 10405 10395 10386
10659 10662 10662 10661 10659 10656 10652 10648 10644 10640 10636 10631 10626 10624 10619 10615 10611 10605 10599 10591 10584 10578 10572 10566 10560 10554 10546 10540 10535 10528 10519 10509 10499 10489 10480 10468 10456 10444 10433 10423 10413 10403 10393
10648 10650 10651 10650 10648 10645 10642 10639 10635 10631 10627 10622 10620 10616 10613 10609 10604 10599 10592 10585 10578 10572 10565 10561 10555 10550 10545 10540 10533 10526 10519 10511 10503 10494 10483 10472 10462 10454 10442 10432 10422 10411 10402
10638 10640 10641 10639 10637 10635 10633 10630 10626 10621 10618 10614 10612 10608 10605 10601 10597 10592 10586 10580 10572 10566 10560 10554 10550 10544 10539 10533 10528 10522 10516 10510 10503 10495 10487 10478 10468 10460 10451 10441 10430 10420 10411
10629 10630 10629 10627 10626 10625 10623 10619 10615 10612 10608 10605 10602 10599 10596 10593 10589 10584 10579 10573 10567 10560 10554 10548 10542 10538 10533 10528 10523 10518 10512 10506 10500 10494 10488 10481 10474 10465 10456 10449 10439 10428 10419
10617 10619 10618 10615 10614 10613 10611 10607 10604 10601 10598 10594 10591 10589 10587 10584 10581 10576 10571 10565 10559 10553 10548 10541 10535 10530 10526 10521 10517 10513 10508 10503 10498 10493 10487 10481 10475 10468 10461 10454 10446 10437 10428
10606 10606 10604 10603 10601 10600 10597 10595 10592 10589 10585 10583 10580 10577 10576 10574 10572 10567 10561 10556 10551 10545 10539 10534 10529 10524 10519 10513 10509 10504 10500 10496 10492 10487 10482 10478 10473 10468 10463 10457 10451 10443 10435
10593 10592 10591 10590 10588 10586 10583 10581 10579 10576 10573 10571 10569 10566 10564 10563 10561 10557 10551 10545 10540 10535 10531 10527 10522 10517 10512 10507 10502 10497 10492 10488 10484 10480 10476 10472 10467 10463 10459 10454 10450 10445 10438
10579 10579 10578 10577 10576 10574 10571 10568 10566 10564 10561 10560 10557 10555 10552 10551 10549 10544 10538 10535 10531 10525 10521 10517 10513 10508 10504 10499 10495 10489 10484 10479 10474 10470 10467 10463 10461 10457 10453 10450 10447 10443 10439
10566 10565 10565 10564 10563 10561 10559 10556 10554 10551 10549 10548 10546 10543 10540 10537 10535 10531 10526 10521 10518 10514 10510 10506 10503 10498 10493 10488 10484 10480 10475 10470 10465 10460 10456 10452 10450 10448 10445 10442 10440 10438 10435
10553 10554 10553 10552 10550 10548 10545 10543 10541 10539 10537 10536 10532 10529 10526 10523 10521 10517 10512 10508 10504 10500 10497 10493 10489 10485 10481 10476 10471 10467 10462 10458 10453 10448 10445 10440 10436 10434 10432 10431 10429 10427 10426
10540 10540 10539 10538 10536 10535 10532 10530 10528 10526 10523 10521 10518 10516 10513 10509 10506 10502 10497 10494 10490 10486 10482 10478 10473 10469 10464 10459 10454 10449 10444 10440 10436 10431 10428 10425 10421 10419 10417 10415 10415 10414 10414
10525 10526 10524 10522 10519 10518 10517 10515 10514 10513 10510 10507 10504 10501 10498 10495 10490 10486 10483 10479 10475 10470 10466 10462 10456 10451 10445 10439 10434 10429 10423 10419 10415 10412 10409 10406 10403 10402 10400 10398 10397 10396 10397
10509 10509 10508 10505 10503 10501 10500 10501 10500 10498 10495 10492 10489 10485 10481 10478 10474 10470 10466 10462 10457 10453 10447 10442 10437 10431 10424 10419 10413 10408 10402 10397 10392 10389 10386 10383 10380 10379 10378 10377 10376 10377 10377